Location: Unspecified
(44.2227°N, 0.0000°E)
Time: 20:39:09
(UTC+00:00)

O/OREOS (USA 219) - Visible Passes

Search period start: 04 April 2026 00:00
Search period end: 14 April 2026 00:00
Orbit: 576 x 599 km, 72.0° (Epoch: 28 March)

Date Brightness Start Highest point End Pass type
(mag) Time Alt. Az. Time Alt. Az. Time Alt. Az.
4 Apr ? 04:37:16 10° SSW 04:41:33 66° ESE 04:45:53 10° NNE visible
5 Apr ? 03:10:19 10° ESE 03:11:03 10° E 03:11:48 10° E visible
5 Apr ? 04:44:27 10° SSW 04:48:47 77° WNW 04:53:09 10° NNE visible
6 Apr ? 03:15:15 10° SE 03:18:03 17° E 03:20:52 10° ENE visible
6 Apr ? 04:51:52 10° SW 04:56:04 48° WNW 05:00:18 10° NNE visible
7 Apr ? 03:22:09 14° SSE 03:25:06 27° ESE 03:28:45 10° NE visible
7 Apr ? 04:59:31 10° WSW 05:03:24 31° WNW 05:07:17 10° N visible
8 Apr ? 03:29:47 22° SSE 03:32:12 42° ESE 03:36:18 10° NE visible
9 Apr ? 03:37:19 30° S 03:39:21 70° ESE 03:43:40 10° NNE visible
10 Apr ? 02:08:16 11° ESE 02:08:47 11° E 02:09:58 10° E visible
10 Apr ? 03:44:45 34° SW 03:46:32 74° WNW 03:50:53 10° NNE visible
11 Apr ? 02:15:38 18° ESE 02:15:45 18° E 02:18:40 10° ENE visible
11 Apr ? 03:52:08 30° WSW 03:53:48 46° WNW 03:57:59 10° NNE visible
12 Apr ? 02:22:57 28° E 02:22:57 28° E 02:26:28 10° NE visible
12 Apr ? 03:59:26 23° W 04:01:06 30° WNW 04:04:57 10° N visible
13 Apr ? 02:30:12 43° E 02:30:12 43° E 02:33:59 10° NE visible
13 Apr ? 04:06:41 16° W 04:08:28 20° NW 04:11:45 10° N visible
